Orbital Elements at Epoch 2459000.5 (2020-May-31.0) TDB
Reference: JPL 14 (heliocentric ecliptic J2000)
Element | Value | Uncertainty (1-sigma) | Units |
e | .08889031421997884 | 5.462e-08 | |
a | 2.55511662734783 | 2.7589e-08 | au |
q | 2.327991507474189 | 1.4752e-07 | au |
i | 13.03349414760507 | 6.8515e-06 | deg |
node | 286.5089172796492 | 3.4232e-05 | deg |
peri | 130.9525738595898 | 7.7087e-05 | deg |
M | 187.7422690295707 | 7.1175e-05 | deg |
tp | 2459714.323334271904 (2022-May-14.82333427) | 0.00030207 | TDB |
period | 1491.813452378514 4.08 | 2.4162e-05 6.615e-08 | d yr |
n | .2413170356025574 | 3.9084e-09 | deg/d |
Q | 2.782241747221471 | 3.0041e-08 | au |
|
| | Orbit Determination Parameters
Additional Information
|